When you browse on this site, cookies collect data to enhance your experience and personalize the content and advertising you see.
Visit our Privacy Policy to learn more. By continuing to use the site, you agree to this use of cookies and data.
  • In Latvia
  • List of Countries
  • For 7 days
  • Water Temperature
  • Satellite Maps
  • Weather Map
  • Weather Widgets
  • user-avatar
    Login

    Hourly Weather Kerns

    Today, 23 July, Tuesday

    Time Temperature Precipitation Wind Pressure Humidity
    00:00 +19°C° 0 mm 3 mps 761 mmHg 94%
    01:00 +19°C° 0 mm 3 mps 761 mmHg 94%
    02:00 +19°C° 0 mm 3 mps 761 mmHg 95%
    03:00 +19°C° 0 mm 3 mps 761 mmHg 95%
    04:00 +19°C° 0 mm 3 mps 760 mmHg 96%
    05:00 +19°C° 0.1 mm 3 mps 761 mmHg 96%
    06:00 +20°C° 0.1 mm 3 mps 761 mmHg 95%
    07:00 +20°C° 0.1 mm 3 mps 761 mmHg 94%
    08:00 +21°C° 0.3 mm 4 mps 761 mmHg 93%
    09:00 +22°C° 0.3 mm 5 mps 762 mmHg 92%
    10:00 +23°C° 0 mm 6 mps 762 mmHg 90%
    11:00 +24°C° 0.3 mm 6 mps 762 mmHg 87%
    12:00 +24°C° 0.3 mm 6 mps 762 mmHg 84%
    13:00 +26°C° 0.3 mm 6 mps 761 mmHg 81%
    14:00 +24°C° 0.2 mm 6 mps 761 mmHg 83%
    15:00 +23°C° 0.2 mm 6 mps 761 mmHg 86%
    16:00 +22°C° 0.2 mm 5 mps 761 mmHg 88%
    17:00 +22°C° 0.2 mm 5 mps 761 mmHg 91%
    18:00 +21°C° 0.2 mm 5 mps 762 mmHg 93%
    19:00 +20°C° 0.2 mm 5 mps 762 mmHg 96%
    20:00 +20°C° 0.2 mm 5 mps 762 mmHg 96%
    21:00 +20°C° 0.2 mm 4 mps 763 mmHg 97%
    22:00 +20°C° 0.2 mm 4 mps 763 mmHg 97%
    23:00 +20°C° 0.1 mm 4 mps 763 mmHg 97%

    Tomorrow, 24 July, Wednesday

    Time Temperature Precipitation Wind Pressure Humidity
    00:00 +20°C° 0.1 mm 4 mps 763 mmHg 97%
    01:00 +19°C° 0.1 mm 4 mps 763 mmHg 97%
    02:00 +19°C° 0.1 mm 4 mps 763 mmHg 97%
    03:00 +19°C° 0.1 mm 4 mps 763 mmHg 97%
    04:00 +19°C° 0.1 mm 5 mps 762 mmHg 97%
    05:00 +19°C° 0.1 mm 5 mps 763 mmHg 97%
    06:00 +19°C° 0.1 mm 5 mps 763 mmHg 96%
    07:00 +17°C° 0.1 mm 5 mps 763 mmHg 96%
    08:00 +20°C° 0 mm 6 mps 764 mmHg 85%
    09:00 +22°C° 0 mm 6 mps 764 mmHg 73%
    10:00 +24°C° 0 mm 6 mps 764 mmHg 62%
    11:00 +24°C° 0 mm 6 mps 764 mmHg 57%
    12:00 +26°C° 0 mm 7 mps 763 mmHg 51%
    13:00 +27°C° 0 mm 7 mps 763 mmHg 46%
    14:00 +26°C° 0 mm 7 mps 762 mmHg 49%
    15:00 +26°C° 0 mm 6 mps 762 mmHg 52%
    16:00 +24°C° 0 mm 6 mps 762 mmHg 55%
    17:00 +23°C° 0 mm 6 mps 762 mmHg 66%
    18:00 +21°C° 0 mm 6 mps 763 mmHg 77%
    19:00 +19°C° 0 mm 6 mps 763 mmHg 87%
    20:00 +17°C° 0 mm 5 mps 763 mmHg 89%
    21:00 +17°C° 0 mm 5 mps 764 mmHg 91%
    22:00 +17°C° 0 mm 5 mps 764 mmHg 93%
    23:00 +17°C° 0 mm 5 mps 764 mmHg 93%

    Day after tomorrow, 25 July, Thursday

    Time Temperature Precipitation Wind Pressure Humidity
    00:00 +17°C° 0 mm 5 mps 764 mmHg 94%
    01:00 +17°C° 0 mm 5 mps 763 mmHg 94%
    02:00 +17°C° 0.1 mm 5 mps 763 mmHg 95%
    03:00 +16°C° 0.1 mm 5 mps 763 mmHg 95%
    04:00 +16°C° 0.1 mm 5 mps 762 mmHg 96%
    05:00 +16°C° 0 mm 5 mps 763 mmHg 96%
    06:00 +16°C° 0 mm 5 mps 763 mmHg 96%
    07:00 +16°C° 0 mm 5 mps 763 mmHg 96%
    08:00 +19°C° 0.1 mm 5 mps 763 mmHg 89%
    09:00 +21°C° 0.1 mm 6 mps 764 mmHg 82%
    10:00 +23°C° 0.1 mm 6 mps 764 mmHg 76%
    11:00 +23°C° 0.1 mm 6 mps 763 mmHg 72%
    12:00 +24°C° 0.1 mm 7 mps 763 mmHg 68%
    13:00 +26°C° 0.1 mm 7 mps 762 mmHg 64%
    14:00 +24°C° 0.1 mm 7 mps 762 mmHg 64%
    15:00 +24°C° 0.1 mm 7 mps 762 mmHg 63%
    16:00 +23°C° 0.1 mm 6 mps 762 mmHg 62%
    17:00 +22°C° 0 mm 6 mps 762 mmHg 70%
    18:00 +20°C° 0 mm 5 mps 762 mmHg 78%
    19:00 +17°C° 0 mm 5 mps 763 mmHg 86%
    20:00 +17°C° 0.1 mm 5 mps 763 mmHg 88%
    21:00 +17°C° 0.1 mm 5 mps 764 mmHg 89%
    22:00 +17°C° 0.1 mm 4 mps 764 mmHg 91%
    23:00 +17°C° 0.1 mm 4 mps 764 mmHg 93%

    26 July, Friday

    Time Temperature Precipitation Wind Pressure Humidity
    00:00 +17°C° 0.1 mm 4 mps 763 mmHg 94%
    01:00 +17°C° 0.1 mm 4 mps 763 mmHg 95%
    02:00 +17°C° 0.1 mm 4 mps 763 mmHg 96%
    03:00 +17°C° 0.1 mm 4 mps 762 mmHg 96%
    04:00 +17°C° 0.1 mm 4 mps 762 mmHg 96%
    05:00 +18°C° 0.1 mm 4 mps 762 mmHg 96%
    06:00 +17°C° 0.1 mm 5 mps 763 mmHg 96%
    07:00 +17°C° 0.1 mm 5 mps 763 mmHg 96%
    08:00 +20°C° 0.1 mm 5 mps 763 mmHg 88%
    09:00 +22°C° 0.1 mm 6 mps 763 mmHg 80%
    10:00 +23°C° 0.1 mm 6 mps 763 mmHg 72%
    11:00 +24°C° 0.1 mm 6 mps 762 mmHg 70%
    12:00 +24°C° 0.1 mm 6 mps 762 mmHg 68%
    13:00 +26°C° 0.1 mm 6 mps 761 mmHg 66%
    14:00 +25°C° 0.1 mm 5 mps 761 mmHg 68%
    15:00 +25°C° 0.1 mm 5 mps 761 mmHg 70%
    16:00 +25°C° 0.1 mm 5 mps 761 mmHg 71%
    17:00 +22°C° 0.1 mm 5 mps 761 mmHg 79%
    18:00 +20°C° 0.1 mm 4 mps 761 mmHg 87%
    19:00 +19°C° 0.1 mm 4 mps 762 mmHg 95%
    20:00 +18°C° 0.1 mm 4 mps 762 mmHg 96%
    21:00 +18°C° 0.1 mm 4 mps 763 mmHg 96%
    22:00 +18°C° 0.1 mm 4 mps 763 mmHg 97%
    23:00 +18°C° 0.1 mm 4 mps 763 mmHg 97%

    27 July, Saturday

    Time Temperature Precipitation Wind Pressure Humidity
    00:00 +18°C° 0.1 mm 4 mps 763 mmHg 97%
    01:00 +18°C° 0.1 mm 4 mps 762 mmHg 97%
    02:00 +18°C° 0.1 mm 4 mps 762 mmHg 97%
    03:00 +17°C° 0.1 mm 4 mps 762 mmHg 97%
    04:00 +17°C° 0.1 mm 4 mps 762 mmHg 97%
    05:00 +17°C° 0 mm 4 mps 762 mmHg 97%
    06:00 +17°C° 0 mm 4 mps 763 mmHg 97%
    07:00 +15°C° 0 mm 4 mps 763 mmHg 96%
    08:00 +19°C° 0 mm 4 mps 763 mmHg 86%
    09:00 +21°C° 0 mm 4 mps 763 mmHg 76%
    10:00 +25°C° 0 mm 4 mps 763 mmHg 66%
    11:00 +25°C° 0 mm 4 mps 763 mmHg 62%
    12:00 +26°C° 0 mm 5 mps 762 mmHg 58%
    13:00 +27°C° 0 mm 5 mps 762 mmHg 54%
    14:00 +26°C° 0 mm 5 mps 761 mmHg 57%
    15:00 +26°C° 0 mm 4 mps 761 mmHg 59%
    16:00 +25°C° 0 mm 4 mps 761 mmHg 61%
    17:00 +22°C° 0 mm 4 mps 761 mmHg 72%
    18:00 +20°C° 0 mm 4 mps 762 mmHg 82%
    19:00 +18°C° 0 mm 3 mps 762 mmHg 93%
    20:00 +18°C° 0 mm 3 mps 762 mmHg 94%
    21:00 +18°C° 0 mm 3 mps 763 mmHg 95%
    22:00 +17°C° 0 mm 3 mps 763 mmHg 96%
    23:00 +17°C° 0 mm 3 mps 763 mmHg 96%

    28 July, Sunday

    Time Temperature Precipitation Wind Pressure Humidity
    00:00 +17°C° 0 mm 3 mps 762 mmHg 96%
    01:00 +17°C° 0 mm 3 mps 762 mmHg 96%
    02:00 +17°C° 0 mm 3 mps 762 mmHg 97%
    03:00 +16°C° 0 mm 3 mps 762 mmHg 97%
    04:00 +16°C° 0 mm 3 mps 762 mmHg 97%
    05:00 +16°C° 0.1 mm 3 mps 762 mmHg 97%
    06:00 +17°C° 0.1 mm 3 mps 762 mmHg 97%
    07:00 +17°C° 0.1 mm 3 mps 763 mmHg 97%
    08:00 +19°C° 0 mm 3 mps 763 mmHg 85%
    09:00 +22°C° 0 mm 4 mps 763 mmHg 74%
    10:00 +25°C° 0 mm 4 mps 763 mmHg 62%
    11:00 +26°C° 0 mm 5 mps 763 mmHg 58%
    12:00 +27°C° 0 mm 5 mps 762 mmHg 53%
    13:00 +28°C° 0 mm 5 mps 761 mmHg 48%
    14:00 +27°C° 0 mm 5 mps 761 mmHg 51%
    15:00 +27°C° 0 mm 4 mps 761 mmHg 54%
    16:00 +26°C° 0 mm 4 mps 760 mmHg 57%
    17:00 +23°C° 0 mm 4 mps 761 mmHg 68%
    18:00 +21°C° 0 mm 4 mps 761 mmHg 80%
    19:00 +18°C° 0 mm 3 mps 761 mmHg 92%
    20:00 +18°C° 0 mm 3 mps 762 mmHg 93%
    21:00 +18°C° 0 mm 3 mps 762 mmHg 94%
    22:00 +17°C° 0 mm 3 mps 762 mmHg 95%
    23:00 +17°C° 0 mm 3 mps 762 mmHg 95%
    Show more